Location: Nebula Knoll Observatory
(43.6666°N, 71.0000°W)
Time: 10:54:26
(UTC-05:00)

Cosmos 1782 - Visible Passes

Search period start: 28 February 2015 00:00
Search period end: 10 March 2015 01:00
Orbit: 545 x 561 km, 82.5° (Epoch: 27 February)

Date Brightness Start Highest point End Pass type
(mag) Time Alt. Az. Time Alt. Az. Time Alt. Az.
28 Feb 6.0 02:58:58 12° ENE 02:58:58 12° ENE 02:59:47 10° NE visible
28 Feb 3.5 04:34:47 38° NW 04:34:47 38° NW 04:37:46 10° N visible
01 Mar 6.0 02:56:10 12° ENE 02:56:10 12° ENE 02:56:46 10° NE visible
01 Mar 4.0 04:31:59 29° NNW 04:31:59 29° NNW 04:34:24 10° N visible
02 Mar 6.1 02:53:17 11° NE 02:53:17 11° NE 02:53:41 10° NE visible
02 Mar 4.3 04:29:06 24° NNW 04:29:06 24° NNW 04:31:01 10° N visible
03 Mar 6.1 02:50:20 11° NE 02:50:20 11° NE 02:50:33 10° NE visible
03 Mar 4.6 04:26:08 19° NNW 04:26:08 19° NNW 04:27:38 10° N visible
04 Mar 6.1 02:47:19 10° NE 02:47:19 10° NE 02:47:23 10° NE visible
04 Mar 4.9 04:23:07 16° NNW 04:23:07 16° NNW 04:24:13 10° NNW visible
05 Mar 5.1 04:20:03 14° NNW 04:20:03 14° NNW 04:20:48 10° NNW visible
06 Mar 5.2 04:16:57 12° NNW 04:16:57 12° NNW 04:17:21 10° NNW visible
07 Mar 5.4 04:13:49 10° NNW 04:13:49 10° NNW 04:13:53 10° NNW visible
